Location: Pordenone
(45.9640°N, 12.6580°E)
Time: 16:31:08
(UTC+02:00)

ISS - Pass Details

Date: 20 May 2021
Orbit: 417 x 422 km, 51.6° (Epoch: 18 June)

Event Time Altitude Azimuth Distance (km) Brightness Sun altitude
Rises 21:17:19 0° 255° (WSW) 2,357 0.6 -6.1°
Reaches altitude 10° 21:19:26 10° 260° (W) 1,496 -0.3 -6.4°
Maximum altitude 21:22:44 53° 339° (NNW) 520 -2.9 -6.8°
Drops below altitude 10° 21:26:03 10° 58° (ENE) 1,505 -1.1 -7.3°
Sets 21:28:12 0° 63° (ENE) 2,372 -0.2 -7.6°
